EW7837 Weather Reports


time (UTC)temp
C
wind
direction
speed
KPH
gust
KPH
rain 1hr
cm
rain 24hr
cm
rain mn
cm
humidity
%
barometer
mb
20260509120100 17 245 0.0 0.0 0.00 0.00 0.00 86 1010.1
20260509114602 17 245 0.0 0.0 0.00 0.00 0.00 86 1010.1
20260509113058 17 245 0.0 0.0 0.00 0.00 0.00 86 1010.1
20260509111558 17 245 0.0 0.0 0.00 0.00 0.00 86 1010.1
20260509110026 17 245 0.0 0.0 0.00 0.00 0.00 86 1010.1
20260509104529 17 245 0.0 0.0 0.00 0.00 0.00 86 1010.1
20260509103024 17 245 0.0 0.0 0.00 0.00 0.00 87 1010.0
20260509101523 17 245 0.0 0.0 0.00 0.00 0.00 87 1010.2
20260509100022 17 245 0.0 0.0 0.00 0.00 0.00 87 1010.3
20260509094551 17 245 0.0 0.0 0.00 0.00 0.00 87 1010.5
20260509093049 17 245 0.0 0.0 0.00 0.00 0.00 86 1010.5
20260509091550 17 245 0.0 0.0 0.00 0.00 0.00 86 1010.6
20260509090046 17 245 0.0 0.0 0.00 0.00 0.00 86 1010.8
20260509084549 18 245 0.0 0.0 0.00 0.00 0.00 85 1010.6
20260509083043 18 245 0.0 0.0 0.00 0.00 0.00 85 1010.8
20260509081543 18 245 0.0 0.0 0.00 0.00 0.00 85 1011.0
20260509080105 18 245 0.0 0.0 0.00 0.00 0.00 85 1011.1
20260509074512 18 245 0.0 0.0 0.00 0.00 0.00 85 1011.1
20260509073032 18 245 0.0 0.0 0.00 0.00 0.00 85 1011.1
20260509071509 18 245 0.0 0.0 0.00 0.00 0.00 84 1011.3
20260509070010 18 245 0.0 0.0 0.00 0.00 0.00 84 1011.4
20260509064509 18 245 0.0 0.0 0.00 0.00 0.00 85 1011.4
20260509063008 18 245 0.0 0.0 0.00 0.00 0.00 85 1011.5
20260509061549 18 245 0.0 0.0 0.00 0.00 0.00 85 1011.1
20260509060038 18 245 0.0 0.0 0.00 0.00 0.00 85 1011.6
20260509054537 18 245 0.0 0.0 0.00 0.00 0.00 85 1011.6
20260509053034 18 245 0.0 0.0 0.00 0.00 0.00 85 1011.7
20260509051538 18 245 0.0 0.0 0.00 0.00 0.00 85 1011.7
20260509050038 18 245 0.0 0.0 0.00 0.00 0.00 85 1011.7
20260509044529 18 245 0.0 0.0 0.00 0.00 0.00 85 1011.6
20260509043040 18 245 0.0 0.0 0.00 0.00 0.00 85 1011.5
20260509041526 18 245 0.0 0.0 0.00 0.00 0.00 85 1011.3
20260509040026 18 245 0.0 0.0 0.00 0.00 0.00 85 1011.1
20260509034523 18 245 0.0 0.0 0.00 0.00 0.00 86 1011.1
20260509033023 18 245 0.0 0.0 0.00 0.00 0.00 86 1011.1
20260509031521 18 245 0.0 0.0 0.00 0.00 0.00 85 1010.9
20260509030020 18 245 0.0 0.0 0.00 0.00 0.00 85 1010.7
20260509024513 18 245 0.0 0.0 0.00 0.00 0.00 83 1010.6
20260509023020 18 245 0.0 0.0 0.00 0.00 0.00 82 1010.6
20260509021518 19 245 0.0 0.0 0.00 0.00 0.00 80 1010.6
20260509020011 20 246 0.0 0.0 0.00 0.00 0.00 78 1010.5
20260509014540 20 246 0.0 0.0 0.00 0.00 0.00 76 1010.5
20260509013048 21 246 0.0 0.0 0.00 0.00 0.00 75 1010.5
20260509011538 21 246 0.0 0.0 0.00 0.00 0.00 75 1010.4
20260509010040 21 248 0.0 0.0 0.00 0.00 0.00 73 1010.5
20260509004558 21 246 0.0 0.0 0.00 0.00 0.00 74 1010.5
20260509003042 22 256 0.0 0.0 0.00 0.00 0.00 72 1010.5
20260509001533 22 257 0.0 0.0 0.00 0.00 0.00 72 1010.6
20260509000031 22 265 0.0 0.0 0.00 0.00 0.00 71 1010.6
20260508234531 22 255 0.0 0.0 0.00 0.00 0.00 71 1010.6
20260508233030 22 263 0.0 0.0 0.00 0.00 0.00 71 1010.7
20260508231526 22 258 0.0 0.0 0.00 0.00 0.00 70 1010.8
20260508230039 22 266 0.0 0.0 0.00 0.00 0.00 71 1011.0
20260508224525 22 202 0.0 0.0 0.00 0.00 0.00 69 1011.1
20260508223026 22 257 0.0 0.0 0.00 0.00 0.00 70 1011.1
20260508221522 22 259 0.0 0.0 0.00 0.00 0.00 69 1011.1
20260508220021 22 267 1.6 0.0 0.00 0.00 0.00 71 1011.6
20260508214521 22 232 1.6 0.0 0.00 0.00 0.00 71 1011.6
20260508213022 22 215 1.6 0.0 0.00 0.00 0.00 70 1011.6
20260508211518 22 247 1.6 0.0 0.00 0.00 0.00 70 1011.5
20260508210018 22 211 0.0 0.0 0.00 0.00 0.00 69 1011.6
20260508204517 22 213 0.0 0.0 0.00 0.00 0.00 70 1011.6
20260508203016 22 246 0.0 0.0 0.00 0.00 0.00 69 1011.7
20260508201514 23 245 0.0 0.0 0.00 0.00 0.00 68 1011.7
20260508200016 23 260 0.0 0.0 0.00 0.00 0.00 68 1011.7
20260508194512 23 260 0.0 0.0 0.00 0.00 0.00 69 1011.6
20260508193009 22 237 0.0 0.0 0.00 0.00 0.00 71 1012.1
20260508191507 22 253 0.0 0.0 0.00 0.00 0.00 71 1012.2
20260508190004 22 245 0.0 0.0 0.00 0.00 0.00 72 1012.3
20260508184502 22 250 0.0 0.0 0.00 0.00 0.00 71 1012.6
20260508183100 22 254 0.0 0.0 0.00 0.00 0.00 72 1012.7
20260508181607 21 254 0.0 0.0 0.00 0.00 0.00 72 1012.7
20260508180054 21 257 0.0 0.0 0.00 0.00 0.00 73 1012.7
20260508174553 21 257 0.0 0.0 0.00 0.00 0.00 73 1012.7
20260508173050 20 261 0.0 0.0 0.00 0.00 0.00 76 1012.9
20260508171546 20 269 0.0 0.0 0.00 0.00 0.00 79 1013.0
20260508170041 19 269 0.0 0.0 0.00 0.00 0.00 80 1013.0
20260508164540 18 269 0.0 0.0 0.00 0.00 0.00 81 1013.1
20260508163032 18 269 0.0 0.0 0.00 0.00 0.00 82 1013.1
20260508161526 18 269 0.0 0.0 0.00 0.00 0.00 83 1013.2
20260508160021 18 269 0.0 0.0 0.00 0.00 0.00 84 1013.2
20260508154517 17 269 0.0 0.0 0.00 0.00 0.00 84 1013.2
20260508153014 17 269 0.0 0.0 0.00 0.00 0.00 85 1013.2
20260508151514 17 269 0.0 0.0 0.00 0.00 0.00 85 1013.2
20260508150013 17 269 0.0 0.0 0.00 0.00 0.00 86 1013.2
20260508144512 17 269 0.0 0.0 0.00 0.00 0.00 86 1013.2
20260508143008 17 269 0.0 0.0 0.00 0.00 0.00 86 1013.1
20260508141503 17 269 0.0 0.0 0.00 0.00 0.00 86 1013.1
20260508140034 17 269 0.0 0.0 0.00 0.00 0.00 86 1012.8
20260508134537 17 269 0.0 0.0 0.00 0.00 0.00 86 1012.7
20260508133120 17 269 0.0 0.0 0.00 0.00 0.00 86 1012.7
20260508131558 17 269 0.0 0.0 0.00 0.00 0.00 86 1012.6
20260508130053 17 269 0.0 0.0 0.00 0.00 0.00 86 1012.6
20260508124552 17 269 0.0 0.0 0.00 0.00 0.00 86 1012.4
20260508123101 17 269 0.0 0.0 0.00 0.00 0.00 86 1012.4
20260508121552 17 269 0.0 0.0 0.00 0.00 0.00 86 1012.4